WW9M Weather Reports


time (UTC)temp
C
wind
direction
speed
KPH
gust
KPH
rain 1hr
cm
rain 24hr
cm
rain mn
cm
humidity
%
barometer
mb
20260504024500 13 83 0.0 3.2 0.00 0.00 0.00 63 1011.7
20260504024004 13 229 0.0 1.6 0.00 0.00 0.00 63 1011.7
20260504023502 13 113 0.0 3.2 0.00 0.00 0.00 63 1011.7
20260504023000 13 70 0.0 3.2 0.00 0.00 0.00 63 1011.6
20260504022502 13 43 0.0 3.2 0.00 0.00 0.00 62 1011.6
20260504022003 13 61 0.0 1.6 0.00 0.00 0.00 62 1011.7
20260504021500 13 106 0.0 1.6 0.00 0.00 0.00 62 1011.7
20260504021004 14 143 0.0 1.6 0.00 0.00 0.00 61 1011.7
20260504020500 14 143 0.0 3.2 0.00 0.00 0.00 60 1011.7
20260504020002 14 149 0.0 3.2 0.00 0.00 0.00 61 1011.7
20260504015500 15 94 0.0 3.2 0.00 0.00 0.00 59 1011.8
20260504015004 15 49 0.0 4.8 0.00 0.00 0.00 59 1011.8
20260504014504 15 17 1.6 4.8 0.00 0.00 0.00 61 1011.6
20260504014004 15 94 1.6 4.8 0.00 0.00 0.00 57 1011.6
20260504013459 15 46 0.0 3.2 0.00 0.00 0.00 57 1011.5
20260504013001 15 56 0.0 3.2 0.00 0.00 0.00 58 1011.5
20260504012504 15 47 0.0 4.8 0.00 0.00 0.00 57 1011.4
20260504012005 15 91 1.6 4.8 0.00 0.00 0.00 57 1011.4
20260504011504 15 59 1.6 4.8 0.00 0.00 0.00 57 1011.4
20260504011004 15 174 1.6 8.0 0.00 0.00 0.00 58 1011.3
20260504010502 15 40 1.6 8.0 0.00 0.00 0.00 57 1011.3
20260504010005 15 226 1.6 6.4 0.00 0.00 0.00 58 1011.1
20260504005504 15 208 1.6 4.8 0.00 0.00 0.00 60 1011.0
20260504005005 15 94 1.6 4.8 0.00 0.00 0.00 59 1011.1
20260504004505 15 214 0.0 3.2 0.00 0.00 0.00 57 1011.8
20260504004004 15 123 1.6 8.0 0.00 0.00 0.00 58 1011.8
20260504003504 15 139 1.6 8.0 0.00 0.00 0.00 57 1011.8
20260504003000 15 82 0.0 6.4 0.00 0.00 0.00 56 1011.6
20260504002504 15 42 0.0 8.0 0.00 0.00 0.00 57 1011.6
20260504002004 15 108 0.0 8.0 0.00 0.00 0.00 57 1011.3
20260504001000 15 64 0.0 1.6 0.00 0.00 0.00 56 1011.4
20260504000501 15 61 0.0 4.8 0.00 0.00 0.00 55 1011.9
20260504000005 15 150 0.0 6.4 0.00 0.00 0.00 55 1012.2
20260503235504 16 41 0.0 4.8 0.00 0.00 0.00 55 1012.2
20260503235004 16 228 0.0 3.2 0.00 0.00 0.00 52 1012.5
20260503234504 16 70 0.0 4.8 0.00 0.00 0.00 53 1012.5
20260503234005 16 155 0.0 4.8 0.00 0.00 0.00 52 1012.2
20260503233504 16 51 0.0 3.2 0.00 0.00 0.00 52 1012.0
20260503232505 16 264 1.6 11.3 0.00 0.00 0.00 51 1012.1
20260503232004 16 64 1.6 11.3 0.00 0.00 0.00 52 1012.0
20260503231504 16 125 1.6 4.8 0.00 0.00 0.00 52 1012.0
20260503231004 16 135 1.6 6.4 0.00 0.00 0.00 50 1012.1
20260503230504 16 77 1.6 8.0 0.00 0.00 0.00 50 1012.2
20260503230004 16 86 1.6 8.0 0.00 0.00 0.00 49 1012.5
20260503225500 16 98 1.6 9.7 0.00 0.00 0.00 49 1012.5
20260503225000 16 63 1.6 9.7 0.00 0.00 0.00 49 1012.2
20260503224005 16 215 1.6 6.4 0.00 0.00 0.00 50 1012.0
20260503223001 16 80 1.6 9.7 0.00 0.00 0.00 51 1011.9
20260503222502 16 93 1.6 6.4 0.00 0.00 0.00 50 1012.2
20260503222002 15 105 1.6 4.8 0.00 0.00 0.00 51 1012.6
20260503221000 15 45 1.6 8.0 0.00 0.00 0.00 50 1012.7
20260503220504 15 129 1.6 4.8 0.00 0.00 0.00 52 1012.6
20260503220005 15 162 1.6 6.4 0.00 0.00 0.00 52 1012.5
20260503215003 16 198 1.6 8.0 0.00 0.00 0.00 52 1012.6
20260503214504 16 195 1.6 8.0 0.00 0.00 0.00 49 1012.7
20260503213500 16 285 3.2 12.9 0.00 0.00 0.00 45 1013.0
20260503213002 16 96 3.2 19.3 0.00 0.00 0.00 44 1013.0
20260503212504 17 115 1.6 19.3 0.00 0.00 0.00 45 1013.1
20260503212001 17 50 1.6 9.7 0.00 0.00 0.00 45 1013.3
20260503211502 17 18 1.6 9.7 0.00 0.00 0.00 44 1013.5
20260503210502 17 243 1.6 8.0 0.00 0.00 0.00 45 1013.8
20260503210006 17 41 1.6 8.0 0.00 0.00 0.00 44 1014.0
20260503205504 17 231 3.2 9.7 0.00 0.00 0.00 44 1014.1
20260503205004 17 64 3.2 9.7 0.00 0.00 0.00 41 1014.1
20260503204505 18 93 3.2 9.7 0.00 0.00 0.00 41 1014.2
20260503204000 18 84 3.2 12.9 0.00 0.00 0.00 41 1014.3
20260503203500 18 246 3.2 12.9 0.00 0.00 0.00 41 1014.3
20260503203001 18 43 3.2 14.5 0.00 0.00 0.00 40 1014.1
20260503202500 19 121 3.2 14.5 0.00 0.00 0.00 40 1014.2
20260503202000 19 28 3.2 11.3 0.00 0.00 0.00 40 1014.3
20260503201500 18 345 3.2 11.3 0.00 0.00 0.00 42 1014.3
20260503201000 18 221 3.2 11.3 0.00 0.00 0.00 40 1014.3
20260503200502 18 325 3.2 16.1 0.00 0.00 0.00 43 1014.6
20260503200005 18 254 4.8 16.1 0.00 0.00 0.00 42 1014.5
20260503195500 18 66 3.2 11.3 0.00 0.00 0.00 40 1014.6
20260503195002 19 23 3.2 11.3 0.00 0.00 0.00 42 1014.8
20260503194504 18 134 3.2 11.3 0.00 0.00 0.00 44 1014.7
20260503194000 18 10 3.2 9.7 0.00 0.00 0.00 44 1014.8
20260503193502 18 262 3.2 12.9 0.00 0.00 0.00 42 1014.8
20260503193005 18 71 4.8 12.9 0.00 0.00 0.00 41 1014.9
20260503192505 18 41 3.2 11.3 0.00 0.00 0.00 41 1014.9
20260503192004 18 30 3.2 11.3 0.00 0.00 0.00 40 1015.0
20260503191504 18 191 3.2 11.3 0.00 0.00 0.00 40 1015.3
20260503191000 18 94 3.2 12.9 0.00 0.00 0.00 39 1015.4
20260503190500 18 63 3.2 12.9 0.00 0.00 0.00 40 1015.2
20260503190000 18 65 3.2 14.5 0.00 0.00 0.00 42 1015.4
20260503185500 18 86 3.2 14.5 0.00 0.00 0.00 40 1015.6
20260503185003 18 30 3.2 12.9 0.00 0.00 0.00 40 1015.6
20260503184005 18 211 3.2 12.9 0.00 0.00 0.00 40 1015.9
20260503183504 18 34 3.2 11.3 0.00 0.00 0.00 39 1016.1
20260503183000 18 45 3.2 9.7 0.00 0.00 0.00 38 1016.3
20260503182502 18 60 3.2 9.7 0.00 0.00 0.00 40 1016.5
20260503181959 17 129 3.2 11.3 0.00 0.00 0.00 40 1016.4
20260503181504 17 268 3.2 9.7 0.00 0.00 0.00 38 1016.5
20260503180502 17 84 3.2 12.9 0.00 0.00 0.00 41 1016.7
20260503180001 17 44 3.2 12.9 0.00 0.00 0.00 41 1016.8
20260503175504 17 60 3.2 8.0 0.00 0.00 0.00 37 1017.0
20260503175002 17 185 3.2 12.9 0.00 0.00 0.00 40 1017.0
20260503174504 17 37 3.2 11.3 0.00 0.00 0.00 39 1017.0
20260503173505 17 58 3.2 11.3 0.00 0.00 0.00 39 1017.2
20260503173004 17 359 3.2 9.7 0.00 0.00 0.00 42 1017.2
20260503172503 17 41 3.2 9.7 0.00 0.00 0.00 37 1017.3
20260503171502 17 64 3.2 9.7 0.00 0.00 0.00 39 1017.4
20260503171000 17 139 3.2 11.3 0.00 0.00 0.00 37 1017.6
20260503170500 17 148 3.2 11.3 0.00 0.00 0.00 42 1017.7
20260503151003 15 55 1.6 6.4 0.00 0.00 0.00 43 1019.1
20260503150500 14 205 1.6 6.4 0.00 0.00 0.00 44 1019.1
20260503131004 -17 0.0 0.0 0.00 0.00 0.00 1019.5
20260503130504 -17 0.0 0.0 0.00 0.00 0.00 1019.5
20260503110500 -17 243 0.0 0.0 0.00 0.00 0.00 86 1018.8
20260503090502 3 252 0.0 0.0 0.00 0.00 0.00 87 1018.4
20260503081504 3 243 0.0 1.6 0.00 0.00 0.00 86 1018.4
20260503080959 3 242 0.0 1.6 0.00 0.00 0.00 85 1018.3
20260503080500 3 243 0.0 1.6 0.00 0.00 0.00 85 1018.4
20260503072004 3 256 0.0 1.6 0.00 0.00 0.00 83 1018.4
20260503071504 4 266 0.0 1.6 0.00 0.00 0.00 84 1018.4
20260503071004 4 266 0.0 1.6 0.00 0.00 0.00 84 1018.4
20260503055004 4 246 0.0 1.6 0.00 0.00 0.00 85 1018.9
20260503054503 4 246 0.0 1.6 0.00 0.00 0.00 85 1018.9
20260503054000 4 246 0.0 0.0 0.00 0.00 0.00 85 1018.9
20260503053503 4 246 0.0 0.0 0.00 0.00 0.00 86 1018.9
20260503052000 4 246 0.0 0.0 0.00 0.00 0.00 86 1019.0
20260503051504 3 246 0.0 0.0 0.00 0.00 0.00 85 1019.0
20260503051000 3 246 0.0 0.0 0.00 0.00 0.00 84 1019.1
20260503050504 3 246 0.0 0.0 0.00 0.00 0.00 84 1019.1
20260503045500 3 246 0.0 0.0 0.00 0.00 0.00 83 1019.1
20260503045000 3 246 0.0 0.0 0.00 0.00 0.00 82 1019.1
20260503044500 3 246 0.0 0.0 0.00 0.00 0.00 81 1019.0
20260503044002 4 246 0.0 0.0 0.00 0.00 0.00 80 1019.0
20260503043502 4 246 0.0 0.0 0.00 0.00 0.00 79 1018.9
20260503043000 4 246 0.0 0.0 0.00 0.00 0.00 79 1018.9
20260503042501 4 246 0.0 0.0 0.00 0.00 0.00 79 1018.9
20260503042000 4 246 0.0 0.0 0.00 0.00 0.00 77 1018.9
20260503041500 4 246 0.0 0.0 0.00 0.00 0.00 77 1018.8
20260503041000 4 246 0.0 0.0 0.00 0.00 0.00 77 1018.8
20260503035502 5 246 0.0 0.0 0.00 0.00 0.00 78 1018.9
20260503034504 5 246 0.0 0.0 0.00 0.00 0.00 75 1018.9
20260503034000 5 246 0.0 0.0 0.00 0.00 0.00 74 1018.9
20260503033501 5 246 0.0 0.0 0.00 0.00 0.00 72 1019.0
20260503033005 5 246 0.0 0.0 0.00 0.00 0.00 70 1018.9
20260503032502 5 246 0.0 0.0 0.00 0.00 0.00 69 1019.0
20260503032002 5 246 0.0 0.0 0.00 0.00 0.00 69 1019.0
20260503031500 5 246 0.0 0.0 0.00 0.00 0.00 69 1019.0
20260503031000 5 246 0.0 0.0 0.00 0.00 0.00 69 1019.0
20260503030005 5 246 0.0 0.0 0.00 0.00 0.00 68 1019.0
20260503025504 5 246 0.0 0.0 0.00 0.00 0.00 69 1019.0
20260503025004 5 246 0.0 0.0 0.00 0.00 0.00 68 1019.0